Weather History for Ionia, MI

Change the Weather History Date:

Thursday, May 9, 2013

  Actual Average (KGRR) Record (KGRR)
Temperature  
Mean Temperature 66 °F 56 °F  
Max Temperature 80 °F 67 °F 88 °F (1930)
Min Temperature 51 °F 46 °F 23 °F (1947)
Degree Days  
Heating Degree Days 0 9  
Month to date heating degree days 94  
Since 1 July heating degree days 6299  
Cooling Degree Days 0 1  
Month to date cooling degree days 5  
Year to date cooling degree days 13  
Growing Degree Days 16 (Base 50)    
Moisture  
Dew Point 47 °F    
Average Humidity 50    
Maximum Humidity 94    
Minimum Humidity 21    
Precipitation  
Precipitation 0.00 in 0.13 in 4.10 in (1956)
Month to date precipitation 1.12  
Year to date precipitation 10.72  
Snow  
Snow 0.00 in 0.00 in 5.50 in (1923)
Month to date snowfall 0.0  
Since 1 July snowfall 74.9  
Snow Depth -    
Sea Level Pressure  
Sea Level Pressure 29.93 in    
Wind  
Wind Speed 4 mph (WSW)    
Max Wind Speed 16 mph    
Max Gust Speed 23 mph    
Visibility 10 miles    
Events Rain    
T = Trace of Precipitation, MM = Missing Value Source: NWS Daily Summary

Daily Weather History Graph

Daily Weather History Graph

Search for Another Location

Airport:

Trip Planner

Search our weather history database for the weather conditions in past years. The results will help you decide how hot, cold, wet, or windy it might be!

Date:

Astronomy

May. 09, 2013 Rise Set
Actual Time 6:23 AM EDT 8:50 PM EDT
Civil Twilight 5:51 AM EDT 9:22 PM EDT
Nautical Twilight 5:12 AM EDT 10:02 PM EDT
Astronomical Twilight 4:27 AM EDT 10:47 PM EDT
Moon 6:08 AM EDT (5/9) 8:44 PM EDT (5/9)
Length of Visible Light 15h 30m
Length of Day
14h 26m
Waning Crescent, 0% of the Moon is Illuminated
May 9
Waning Crescent
May 9
New
May 18
First Quarter
May 25
Full
May 31
Last Quarter

Hourly Weather History & Observations

Time (EDT) Temp. Dew Point Humidity Pressure Visibility Wind Dir Wind Speed Gust Speed Precip Events Conditions
12:16 AM 64.4 °F 53.6 °F 68% 29.97 in 10.0 mi Calm Calm - N/A   Scattered Clouds
12:38 AM - - N/A% - 1.7 mi North - - N/A   Unknown
12:55 AM - - N/A% - - North - - N/A   Unknown
1:15 AM - - N/A% - - North - - N/A   Unknown
1:36 AM - - N/A% - - WNW 4.6 mph - N/A   Unknown
1:55 AM - - N/A% - 1.8 mi North - - N/A   Unknown
2:15 AM - - N/A% - 10.0 mi West 5.8 mph - N/A   Unknown
2:37 AM - - N/A% - 1.7 mi North - - N/A   Unknown
2:55 AM - - N/A% - - WNW 5.8 mph - N/A   Unknown
3:15 AM - - N/A% - - West 5.8 mph - N/A   Unknown
3:35 AM - - N/A% - - West 5.8 mph - N/A   Unknown
3:56 AM - - N/A% - 10.0 mi West 4.6 mph - N/A   Unknown
4:16 AM 55.4 °F 50.0 °F 82% 29.93 in 10.0 mi Calm Calm - N/A   Clear
4:35 AM - - N/A% - - North - - N/A   Unknown
4:59 AM 55.4 °F 50.0 °F 82% 29.94 in 10.0 mi Calm Calm - N/A   Clear
5:15 AM - - N/A% - - West 3.5 mph - N/A   Unknown
5:36 AM 53.6 °F 50.0 °F 88% 29.94 in 10.0 mi West 5.8 mph - N/A   Clear
5:58 AM 55.4 °F 50.0 °F 82% 29.94 in 10.0 mi West 4.6 mph - N/A   Clear
6:15 AM - - N/A% - - WSW 3.5 mph - N/A   Unknown
6:36 AM 51.8 °F 50.0 °F 94% 29.95 in 10.0 mi WSW 5.8 mph - N/A   Clear
6:56 AM 53.6 °F 50.0 °F 88% 29.95 in 10.0 mi West 3.5 mph - N/A   Clear
7:15 AM - - N/A% - - WSW 3.5 mph - N/A   Unknown
7:23 AM 54.9 °F 50.9 °F 86% 29.96 in 10.0 mi Calm Calm - N/A   Clear
7:33 AM 55.8 °F 51.6 °F 86% 29.96 in 10.0 mi WSW 3.5 mph - N/A   Clear
7:47 AM 57.0 °F 51.6 °F 82% 29.97 in 10.0 mi Calm Calm - N/A   Clear
8:14 AM 58.8 °F 51.4 °F 76% 29.97 in 10.0 mi Calm Calm - N/A   Clear
8:16 AM 58.8 °F 51.4 °F 76% 29.97 in 10.0 mi Calm Calm - N/A   Clear
8:55 AM - - N/A% - - North - - N/A   Unknown
9:15 AM - - N/A% - 1.7 mi North - - N/A   Unknown
9:18 AM 64.9 °F 51.8 °F 62% 29.98 in 10.0 mi West 3.5 mph - N/A   Clear
9:34 AM 66.0 °F 52.5 °F 62% 29.97 in 10.0 mi WNW 3.5 mph - N/A   Clear
9:54 AM 67.1 °F 52.7 °F 60% 29.97 in 10.0 mi WNW 3.5 mph - N/A   Clear
10:14 AM 68.5 °F 53.6 °F 59% 29.97 in 10.0 mi Calm Calm - N/A   Clear
10:34 AM 71.6 °F 54.7 °F 55% 29.97 in 10.0 mi WNW 3.5 mph - N/A   Clear
10:54 AM 73.2 °F 53.4 °F 50% 29.97 in 10.0 mi Calm Calm - N/A   Clear
11:34 AM 76.1 °F 48.2 °F 37% 29.97 in 10.0 mi West 8.1 mph - N/A   Clear
11:54 AM 76.1 °F 49.1 °F 39% 29.97 in 10.0 mi WNW 4.6 mph - N/A   Clear
12:14 PM 77.4 °F 48.0 °F 35% 29.97 in 10.0 mi WSW 8.1 mph - N/A   Clear
12:34 PM 77.9 °F 47.1 °F 34% 29.97 in 10.0 mi West 6.9 mph - N/A   Clear
1:14 PM 77.9 °F 46.6 °F 33% 29.96 in 10.0 mi WNW 6.9 mph - N/A   Clear
1:34 PM 77.9 °F 46.2 °F 33% 29.96 in 10.0 mi SW 8.1 mph - N/A   Clear
1:54 PM 77.9 °F 45.5 °F 32% 29.95 in 10.0 mi SSW 6.9 mph - N/A   Clear
2:14 PM 77.4 °F 44.2 °F 31% 29.95 in 10.0 mi SSW 6.9 mph - N/A   Clear
2:34 PM 77.0 °F 45.3 °F 32% 29.95 in 10.0 mi SW 5.8 mph - N/A   Clear
2:54 PM 77.4 °F 41.7 °F 28% 29.94 in 10.0 mi WSW 4.6 mph - N/A   Clear
3:14 PM 79.2 °F 35.4 °F 21% 29.94 in 10.0 mi SW 8.1 mph - N/A   Clear
3:34 PM 79.0 °F 36.5 °F 22% 29.93 in 10.0 mi WSW 4.6 mph - N/A   Clear
3:54 PM 79.7 °F 36.9 °F 21% 29.92 in 10.0 mi SW 3.5 mph - N/A   Clear
4:14 PM 79.3 °F 38.1 °F 23% 29.92 in 10.0 mi Calm Calm - N/A   Clear
4:34 PM 79.9 °F 38.8 °F 23% 29.91 in 10.0 mi SSW 6.9 mph - N/A   Clear
4:54 PM 80.1 °F 38.7 °F 23% 29.90 in 10.0 mi SW 4.6 mph - N/A   Clear
5:14 PM 80.8 °F 40.6 °F 24% 29.90 in 10.0 mi West 4.6 mph - N/A   Clear
5:34 PM 79.0 °F 41.2 °F 26% 29.89 in 10.0 mi Calm Calm - N/A   Clear
5:54 PM 78.8 °F 38.3 °F 23% 29.89 in 10.0 mi Calm Calm - N/A   Clear
6:14 PM 79.3 °F 39.6 °F 24% 29.89 in 10.0 mi SSW 6.9 mph - N/A   Clear
6:34 PM 78.3 °F 40.1 °F 25% 29.89 in 10.0 mi SSW 5.8 mph - N/A   Clear
6:54 PM 78.1 °F 39.7 °F 25% 29.89 in 10.0 mi South 4.6 mph - N/A   Scattered Clouds
7:14 PM 77.7 °F 41.9 °F 28% 29.88 in 10.0 mi SSW 4.6 mph - N/A   Mostly Cloudy
7:34 PM 76.8 °F 42.1 °F 29% 29.88 in 10.0 mi South 4.6 mph - N/A   Overcast
7:54 PM 75.9 °F 42.6 °F 30% 29.88 in 10.0 mi SSW 3.5 mph - N/A   Overcast
8:14 PM 75.7 °F 42.3 °F 30% 29.89 in 10.0 mi SW 3.5 mph - N/A   Overcast
8:34 PM 73.9 °F 43.5 °F 34% 29.89 in 10.0 mi WSW 8.1 mph - N/A   Overcast
8:54 PM 71.1 °F 51.1 °F 49% 29.90 in 10.0 mi WSW 16.1 mph - N/A   Overcast
9:14 PM 69.1 °F 53.4 °F 57% 29.91 in 10.0 mi West 13.8 mph 23.0 mph N/A   Overcast
9:34 PM 68.2 °F 53.6 °F 60% 29.91 in 10.0 mi West 13.8 mph 21.9 mph N/A   Overcast
9:54 PM 67.3 °F 54.1 °F 63% 29.91 in 10.0 mi West 11.5 mph 16.1 mph N/A   Overcast
10:14 PM 66.4 °F 54.7 °F 66% 29.91 in 10.0 mi WSW 8.1 mph - N/A   Overcast
10:34 PM 65.7 °F 55.6 °F 70% 29.91 in 10.0 mi WSW 4.6 mph - N/A   Overcast
10:54 PM 65.7 °F 55.4 °F 69% 29.90 in 10.0 mi NNW 3.5 mph - N/A   Overcast
11:14 PM 65.3 °F 55.4 °F 70% 29.90 in 10.0 mi NNW 3.5 mph - N/A   Overcast
11:34 PM 64.0 °F 55.0 °F 73% 29.89 in 10.0 mi North 3.5 mph - N/A   Overcast
11:54 PM 63.5 °F 55.2 °F 74% 29.90 in 10.0 mi ENE 3.5 mph - N/A Rain Rain